Weather History for St. James, MN

Change the Weather History Date:

Monday, January 21, 2013

  Actual Average Record
Temperature  
Mean Temperature 0 °F -  
Max Temperature 5 °F 27 °F 50 °F (1964)
Min Temperature -5 °F 7 °F -30 °F (1970)
Degree Days  
Heating Degree Days 65    
Moisture  
Dew Point -13 °F    
Average Humidity 56    
Maximum Humidity 66    
Minimum Humidity 47    
Precipitation  
Precipitation 0.00 in - - ()
Sea Level Pressure  
Sea Level Pressure 30.33 in    
Wind  
Wind Speed 17 mph (WNW)    
Max Wind Speed 25 mph    
Max Gust Speed 32 mph    
Visibility 10 miles    
Events Snow    
Averages and records for this station are not official NWS values.
T = Trace of Precipitation, MM = Missing Value Source: NWS Daily Summary

Daily Weather History Graph

Daily Weather History Graph

Search for Another Location

Airport:

Trip Planner

Search our weather history database for the weather conditions in past years. The results will help you decide how hot, cold, wet, or windy it might be!

Date:

Astronomy

Jan. 21, 2013 Rise Set
Actual Time 7:45 AM CST 5:14 PM CST
Civil Twilight 7:14 AM CST 5:45 PM CST
Nautical Twilight 6:38 AM CST 6:20 PM CST
Astronomical Twilight 6:04 AM CST 6:55 PM CST
Moon 12:53 PM CST (1/21) 3:15 AM CST (1/21)
Length of Visible Light 10h 31m
Length of Day
9h 28m
Waxing Gibbous, 75% of the Moon is Illuminated
Jan 21
Waxing Gibbous
Jan 26
Full
Feb 3
Last Quarter
Feb 10
New
Feb 17
First Quarter

Hourly Weather History & Observations

Time (CST) Temp. Windchill Dew Point Humidity Pressure Visibility Wind Dir Wind Speed Gust Speed Precip Events Conditions
12:15 AM 1.4 °F -20.5 °F -11.2 °F 56% 30.32 in 10.0 mi WNW 20.7 mph 26.5 mph N/A   Clear
12:35 AM 1.4 °F -18.2 °F -11.2 °F 56% 30.32 in 10.0 mi WNW 16.1 mph 24.2 mph N/A   Clear
1:35 AM 1.4 °F -21.0 °F -9.4 °F 61% 30.32 in 4.0 mi WNW 21.9 mph 29.9 mph N/A   Haze
1:55 AM -0.4 °F -23.3 °F -11.2 °F 60% 30.33 in 3.0 mi WNW 21.9 mph 32.2 mph N/A Snow Light Snow
2:15 AM -2.2 °F -27.1 °F -14.8 °F 55% 30.34 in 10.0 mi WNW 25.3 mph 32.2 mph N/A   Scattered Clouds
2:35 AM -2.2 °F -25.2 °F -14.8 °F 55% 30.35 in 7.0 mi WNW 20.7 mph 27.6 mph N/A   Scattered Clouds
2:55 AM -4.0 °F -29.1 °F -16.6 °F 55% 30.35 in 10.0 mi WNW 24.2 mph 28.8 mph N/A   Scattered Clouds
3:15 AM -5.8 °F -31.5 °F -18.4 °F 55% 30.35 in 10.0 mi WNW 24.2 mph 32.2 mph N/A   Clear
3:35 AM -5.8 °F -30.5 °F -18.4 °F 55% 30.36 in 10.0 mi WNW 21.9 mph 28.8 mph N/A   Clear
3:55 AM -5.8 °F -29.9 °F -18.4 °F 55% 30.35 in 10.0 mi WNW 20.7 mph 27.6 mph N/A   Clear
4:35 AM -5.8 °F -31.0 °F -18.4 °F 55% 30.35 in 10.0 mi WNW 23.0 mph 28.8 mph N/A   Clear
4:55 AM -5.8 °F -27.5 °F -18.4 °F 55% 30.35 in 10.0 mi WNW 16.1 mph 23.0 mph N/A   Clear
5:15 AM -5.8 °F -27.5 °F -18.4 °F 55% 30.35 in 10.0 mi WNW 16.1 mph 21.9 mph N/A   Clear
5:35 AM -5.8 °F -29.4 °F -18.4 °F 55% 30.35 in 10.0 mi WNW 19.6 mph - N/A   Clear
6:15 AM -5.8 °F -26.8 °F -18.4 °F 55% 30.34 in 10.0 mi WNW 15.0 mph 23.0 mph N/A   Clear
6:35 AM -5.8 °F -26.8 °F -18.4 °F 55% 30.34 in 10.0 mi WNW 15.0 mph 21.9 mph N/A   Clear
6:55 AM -5.8 °F -27.5 °F -18.4 °F 55% 30.34 in 10.0 mi WNW 16.1 mph - N/A   Clear
7:15 AM -5.8 °F -26.0 °F -18.4 °F 55% 30.34 in 10.0 mi WNW 13.8 mph 21.9 mph N/A   Clear
7:35 AM -5.8 °F -27.5 °F -18.4 °F 55% 30.34 in 10.0 mi WNW 16.1 mph 20.7 mph N/A   Clear
7:55 AM -5.8 °F -28.2 °F -18.4 °F 55% 30.34 in 10.0 mi WNW 17.3 mph - N/A   Clear
8:15 AM -5.8 °F -26.8 °F -18.4 °F 55% 30.34 in 10.0 mi WNW 15.0 mph 24.2 mph N/A   Clear
8:35 AM -5.8 °F -25.2 °F -16.6 °F 60% 30.35 in 10.0 mi WNW 12.7 mph 19.6 mph N/A   Clear
8:55 AM -4.0 °F -26.4 °F -16.6 °F 55% 30.35 in 10.0 mi WNW 18.4 mph 24.2 mph N/A   Clear
9:15 AM -4.0 °F -27.0 °F -16.6 °F 55% 30.36 in 10.0 mi West 19.6 mph - N/A   Clear
9:35 AM -2.2 °F -24.7 °F -16.6 °F 50% 30.36 in 10.0 mi WNW 19.6 mph 26.5 mph N/A   Clear
9:55 AM -2.2 °F -23.5 °F -16.6 °F 50% 30.37 in 10.0 mi WNW 17.3 mph - N/A   Clear
10:14 AM -2.2 °F -24.1 °F -16.6 °F 50% 30.37 in 10.0 mi WNW 18.4 mph 26.5 mph N/A   Clear
10:35 AM -2.2 °F -25.2 °F -16.6 °F 50% 30.38 in 10.0 mi WNW 20.7 mph 24.2 mph N/A   Clear
10:55 AM -0.4 °F -21.7 °F -14.8 °F 51% 30.37 in 10.0 mi WNW 18.4 mph 23.0 mph N/A   Clear
11:15 AM -0.4 °F -22.8 °F -14.8 °F 51% 30.37 in 10.0 mi WNW 20.7 mph 26.5 mph N/A   Clear
11:35 AM -0.4 °F -21.7 °F -14.8 °F 51% 30.36 in 10.0 mi WNW 18.4 mph 24.2 mph N/A   Clear
11:55 AM 1.4 °F -19.9 °F -13.0 °F 51% 30.35 in 10.0 mi WNW 19.6 mph 26.5 mph N/A   Clear
12:14 PM 1.4 °F -19.4 °F -13.0 °F 51% 30.34 in 10.0 mi WNW 18.4 mph 25.3 mph N/A   Clear
12:35 PM 1.4 °F -19.4 °F -11.2 °F 56% 30.33 in 10.0 mi West 18.4 mph 24.2 mph N/A   Clear
12:55 PM 1.4 °F -18.8 °F -11.2 °F 56% 30.32 in 10.0 mi West 17.3 mph 26.5 mph N/A   Clear
1:15 PM 3.2 °F -15.3 °F -11.2 °F 51% 30.32 in 10.0 mi West 15.0 mph 21.9 mph N/A   Clear
1:35 PM 3.2 °F -16.5 °F -11.2 °F 51% 30.31 in 10.0 mi WNW 17.3 mph - N/A   Clear
1:55 PM 3.2 °F -17.1 °F -11.2 °F 51% 30.30 in 10.0 mi WNW 18.4 mph 24.2 mph N/A   Clear
2:15 PM 3.2 °F -16.5 °F -11.2 °F 51% 30.30 in 10.0 mi WNW 17.3 mph 20.7 mph N/A   Clear
2:34 PM 3.2 °F -15.9 °F -11.2 °F 51% 30.30 in 10.0 mi West 16.1 mph 20.7 mph N/A   Clear
2:55 PM 3.2 °F -16.5 °F -9.4 °F 56% 30.30 in 10.0 mi West 17.3 mph - N/A   Clear
3:15 PM 3.2 °F -15.9 °F -9.4 °F 56% 30.30 in 10.0 mi WNW 16.1 mph - N/A   Clear
3:34 PM 5.0 °F -13.6 °F -9.4 °F 52% 30.30 in 10.0 mi West 16.1 mph 24.2 mph N/A   Clear
3:55 PM 5.0 °F -14.2 °F -11.2 °F 47% 30.30 in 10.0 mi WNW 17.3 mph 24.2 mph N/A   Clear
4:15 PM 3.2 °F -16.5 °F -9.4 °F 56% 30.30 in 10.0 mi WNW 17.3 mph 21.9 mph N/A   Clear
4:35 PM 3.2 °F -15.9 °F -11.2 °F 51% 30.30 in 10.0 mi West 16.1 mph - N/A   Clear
5:15 PM 3.2 °F -14.6 °F -9.4 °F 56% 30.30 in 10.0 mi West 13.8 mph 18.4 mph N/A   Clear
5:35 PM 3.2 °F -13.9 °F -11.2 °F 51% 30.30 in 10.0 mi WNW 12.7 mph - N/A   Clear
5:55 PM 1.4 °F -15.3 °F -11.2 °F 56% 30.30 in 10.0 mi West 11.5 mph - N/A   Clear
6:15 PM 1.4 °F -14.5 °F -11.2 °F 56% 30.31 in 10.0 mi WNW 10.4 mph - N/A   Clear
6:55 PM 1.4 °F -12.5 °F -9.4 °F 61% 30.30 in 10.0 mi West 8.1 mph - N/A   Clear
7:15 PM 1.4 °F - -9.4 °F 61% 30.31 in 10.0 mi Calm Calm - N/A   Clear
7:35 PM 1.4 °F -6.2 °F -9.4 °F 61% 30.30 in 10.0 mi West 3.5 mph - N/A   Clear
7:55 PM 1.4 °F -13.5 °F -9.4 °F 61% 30.31 in 10.0 mi West 9.2 mph - N/A   Clear
8:15 PM 1.4 °F -13.5 °F -9.4 °F 61% 30.31 in 10.0 mi West 9.2 mph - N/A   Clear
8:35 PM 1.4 °F -12.5 °F -9.4 °F 61% 30.30 in 10.0 mi West 8.1 mph - N/A   Clear
8:55 PM 1.4 °F -12.5 °F -9.4 °F 61% 30.30 in 10.0 mi West 8.1 mph - N/A   Clear
9:14 PM 1.4 °F -11.3 °F -9.4 °F 61% 30.30 in 10.0 mi West 6.9 mph - N/A   Clear
9:35 PM 1.4 °F -13.5 °F -7.6 °F 66% 30.30 in 10.0 mi West 9.2 mph - N/A   Clear
9:55 PM 1.4 °F -13.5 °F -7.6 °F 66% 30.30 in 10.0 mi West 9.2 mph - N/A   Clear
10:15 PM 1.4 °F -12.5 °F -7.6 °F 66% 30.30 in 10.0 mi West 8.1 mph - N/A   Clear
10:35 PM 1.4 °F -12.5 °F -7.6 °F 66% 30.30 in 10.0 mi West 8.1 mph - N/A   Clear
10:54 PM 1.4 °F -13.5 °F -7.6 °F 66% 30.30 in 10.0 mi West 9.2 mph - N/A   Clear
11:15 PM 3.2 °F -12.2 °F -9.4 °F 56% 30.30 in 10.0 mi WNW 10.4 mph - N/A   Clear
11:35 PM 1.4 °F -13.5 °F -7.6 °F 66% 30.30 in 10.0 mi WNW 9.2 mph - N/A   Clear
11:55 PM 1.4 °F -13.5 °F -9.4 °F 61% 30.31 in 10.0 mi WNW 9.2 mph - N/A   Clear